Regional Weather Roundup
Issued by NWS

Home | Current Version | Previous Version | Text Only | Print | Product List | Glossary Off
Versions: 1 2 3 4 5 6 7 8 9 10 11 12 13 14 15 16 17 18 19 20 21 22 23 24 25 26 27 28 29 30 31 32 33 34 35 36 37 38 39 40 41 42 43 44 45 46 47 48 49 50

000
ASUS43 KFSD 280710
RWRSD

WEATHER ROUNDUP FOR SOUTH DAKOTA
NATIONAL WEATHER SERVICE SIOUX FALLS SD
200 AM CDT TUE JUL 28 2015

NOTE: "FAIR" INDICATES FEW OR NO CLOUDS BELOW 12,000 FEET WITH NO
SIGNIFICANT WEATHER AND/OR OBSTRUCTIONS TO VISIBILITY.


SDZ001>005-009-010-012>017-280800-
NORTHWEST AND NORTH CENTRAL SOUTH DAKOTA

CITY           SKY/WX    TMP DP  RH WIND       PRES   REMARKS
BUFFALO          N/A     59  52  77 W28G39    29.77R
FAITH            N/A     61  53  75 NW22G30   29.78R
MOBRIDGE       CLOUDY    70  65  84 E16       29.58R
$$

SDZ012>016-024>037-041>051-057-063-072>074-280800-
SOUTHWEST AND SOUTH CENTRAL SOUTH DAKOTA

CITY           SKY/WX    TMP DP  RH WIND       PRES   REMARKS
RAPID CTY ARPT CLEAR     61  52  72 NW18      29.85R
PIERRE         CLOUDY    67  65  93 S9        29.67R
CUSTER         CLEAR     55  45  68 VRB5      29.95R
ELLSWORTH AFB  CLEAR     61  52  73 N16       29.86R
PHILIP         CLOUDY    63  59  87 NW23G32   29.76R
PINE RIDGE     PTCLDY    64  58  80 W8        29.85R
SPEARFISH      FAIR      57  46  67 W13G18    29.93S
WINNER         FAIR      67  63  87 SE9       29.73F
$$

SDZ004>011-016>023-039-040-280800-
NORTHEAST SOUTH DAKOTA

CITY           SKY/WX    TMP DP  RH WIND       PRES   REMARKS
ABERDEEN       TSTM      69  66  90 W25G37    29.67S
WATERTOWN      CLOUDY    75  70  84 S23G32    29.67F
BROOKINGS      CLOUDY    72  66  83 SE20      29.74F
SISSETON         N/A     75  71  87 S14G23    29.67F
$$

SDZ017-020-022-023-036>040-048>070-280800-
SOUTHEAST SOUTH DAKOTA

CITY           SKY/WX    TMP DP  RH WIND       PRES   REMARKS
SIOUX FALLS    MOCLDY    75  70  84 S15G28    29.73F
HURON          HVY RAIN  67  67 100 NW16      29.74R FOG
CHAMBERLAIN    LGT RAIN  67  66  99 SE5       29.69F
MITCHELL       CLOUDY    78  74  87 S15G26    29.70R
YANKTON        CLOUDY    75  70  83 SE14      29.72F
$$

ABBREVIATIONS USED IN REMARKS
   TC - TEMPERATURE IN CELSIUS
  WCI - WIND CHILL INDEX
   HX - HEAT INDEX
  VSB - VISIBILITY



USA.gov is the U.S. government's official web portal to all federal, state and local government web resources and services.